This is the latest recevied weather packets stored in our database for station/object KD8FRE. If no packets are shown the sender has not sent any weather packets the latest 10 day(s).
| Time | Temp. | Humidity | Pressure | Rain* | Wind** | Luminosity | Snow |
|---|---|---|---|---|---|---|---|
| 1777767733 | 7.78° C | 46% | 1016 hPa | 0 mm | - | 8 W/m² | - |
| 1777767429 | 7.78° C | 45% | 1015.9 hPa | 0 mm | - | 10 W/m² | - |
| 1777767126 | 7.78° C | 45% | 1016 hPa | 0 mm | - | 12 W/m² | - |
| 1777766824 | 7.78° C | 46% | 1015.9 hPa | 0 mm | - | 14 W/m² | - |
| 1777766521 | 8.33° C | 45% | 1015.9 hPa | 0 mm | - | 17 W/m² | - |
| 1777766217 | 8.33° C | 43% | 1016 hPa | 0 mm | - | 22 W/m² | - |
| 1777765915 | 8.33° C | 44% | 1015.9 hPa | 0 mm | - | 27 W/m² | - |
| 1777765611 | 8.33° C | 45% | 1016 hPa | 0 mm | - | 26 W/m² | - |
| 1777765309 | 7.78° C | 45% | 1016.1 hPa | 0 mm | - | 20 W/m² | - |
| 1777765005 | 7.78° C | 44% | 1016.2 hPa | 0 mm | - | 21 W/m² | - |
| 1777764701 | 7.78° C | 45% | 1016 hPa | 0 mm | - | 21 W/m² | - |
| 1777764397 | 7.78° C | 44% | 1016 hPa | 0 mm | - | 22 W/m² | - |
| 1777764095 | 8.33° C | 44% | 1016.1 hPa | 0 mm | - | 24 W/m² | - |
| 1777763791 | 8.33° C | 44% | 1016 hPa | 0 mm | - | 28 W/m² | - |
| 1777763490 | 8.33° C | 42% | 1016 hPa | 0 mm | - | 41 W/m² | - |
| 1777763188 | 8.33° C | 45% | 1016.3 hPa | 0 mm | - | 62 W/m² | - |
| 1777762886 | 7.78° C | 44% | 1016.1 hPa | 0 mm | - | 51 W/m² | - |
| 1777762580 | 8.33° C | 43% | 1016.2 hPa | 0 mm | - | 45 W/m² | - |
| 1777762278 | 8.33° C | 42% | 1016.1 hPa | 0 mm | - | 54 W/m² | - |
| 1777761974 | 8.89° C | 41% | 1016.1 hPa | 0 mm | - | 61 W/m² | - |
| 1777761671 | 8.33° C | 43% | 1016.1 hPa | 0 mm | - | 153 W/m² | - |
| 1777761369 | 7.78° C | 44% | 1016.4 hPa | 0 mm | - | 62 W/m² | - |
| 1777761068 | 7.78° C | 44% | 1016.3 hPa | 0 mm | - | 51 W/m² | - |
| 1777760764 | 7.78° C | 43% | 1016.2 hPa | 0 mm | - | 44 W/m² | - |
| 1777760460 | 7.78° C | 43% | 1016.2 hPa | 0 mm | - | 60 W/m² | - |
* Rain latest hour (hover to see other rain measurements)
** Current wind speed in m/s (hover to see current wind gust speed)